Helicity
153 139 137 159 156 142 147 142 126 99 84 68 56 44 32 32 40 46 31 34 30 24 4 -3 -10 -9 -9 -2 10 15 7 3 10 17 17 17 7 11 8 -2 21 22 30
168 178 169 140 120 140 128 134 123 121 106 93 79 64 57 44 37 41 53 37 31 26 24 16 2 -10 -15 -14 -11 8 8 -1 -7 5 12 28 23 18 17 -2 12 23 31
192 172 155 138 141 131 135 118 118 98 100 95 93 98 79 64 56 49 40 49 43 29 26 26 21 10 -3 -10 -11 1 7 10 -2 -5 3 18 40 29 15 14 3 11 18
199 179 166 152 151 144 142 143 134 138 108 102 96 88 95 87 64 47 50 49 50 44 47 38 41 31 15 5 -8 4 26 18 14 1 1 10 24 43 37 8 15 -7 24
191 169 156 135 137 129 119 127 116 132 124 116 107 97 86 75 61 57 43 46 50 58 60 50 51 42 31 21 18 4 27 47 28 13 9 7 6 23 39 35 15 19 -5
169 167 144 140 137 126 123 133 129 119 112 119 110 87 66 59 60 59 51 47 51 59 62 74 77 61 55 44 30 26 13 31 58 39 11 9 16 11 15 35 35 15 9
189 157 138 135 141 134 135 139 128 132 117 126 91 58 41 43 55 65 69 69 70 77 85 90 85 85 75 60 56 42 30 9 50 44 36 27 14 19 13 14 23 33 17
145 135 140 142 152 145 150 151 160 142 122 137 104 56 57 29 45 67 86 93 95 92 78 79 101 88 100 100 71 58 52 33 21 44 35 28 26 21 17 16 14 15 30
158 158 155 156 158 160 160 167 174 169 136 107 141 126 86 130 85 66 72 108 169 182 197 206 232 230 214 197 164 109 84 78 44 34 35 44 29 20 20 22 20 16 17
151 159 164 161 164 166 172 172 167 163 162 130 118 148 156 144 149 115 98 129 142 174 151 154 155 181 170 151 143 132 123 99 100 80 38 33 34 37 27 19 21 20 26
141 155 160 164 165 162 161 165 174 176 164 157 159 159 164 154 146 154 164 159 147 165 172 165 144 124 129 132 133 119 155 137 128 131 106 95 41 42 36 26 29 25 27
138 157 160 159 158 160 165 157 155 158 173 171 165 167 176 186 192 167 147 140 129 121 148 119 123 143 142 116 138 172 179 178 157 163 168 149 122 90 56 54 31 39 37
128 143 151 157 161 166 165 169 167 162 163 171 169 169 163 166 171 157 143 123 98 96 108 120 122 165 171 182 195 226 188 164 206 222 203 222 258 219 178 126 77 45 38
136 128 131 129 132 135 141 134 135 133 135 135 144 152 157 153 143 147 143 144 107 71 61 91 145 150 202 247 215 265 241 254 223 234 231 211 192 185 177 162 149 122 76
117 120 127 135 134 134 135 140 135 140 141 141 144 144 142 142 141 140 136 126 122 116 130 107 87 173 205 176 177 154 153 163 169 150 144 144 149 138 142 147 135 127 109
99 108 108 114 118 122 127 131 134 134 140 139 127 133 136 137 135 134 135 130 127 125 133 111 165 172 120 115 113 119 117 118 113 121 127 114 105 82 85 91 97 105 92
86 91 95 102 105 110 108 115 122 119 124 127 125 116 120 121 129 125 114 115 121 118 122 111 99 92 90 75 90 118 120 118 116 120 131 128 119 96 59 49 60 69 83
73 73 77 79 84 89 92 100 106 118 120 121 119 113 108 100 96 95 107 101 106 110 114 106 92 84 73 68 67 64 95 113 117 121 130 109 106 112 97 80 59 59 57
71 68 68 76 82 80 81 72 76 79 80 86 92 98 100 105 106 102 98 106 108 103 106 93 72 68 64 58 60 58 53 62 96 104 102 110 127 122 103 87 77 63 59
63 57 56 61 60 61 64 65 63 65 70 66 72 77 83 88 90 94 92 90 89 94 98 99 85 66 58 48 63 69 79 61 59 79 98 115 117 127 124 122 96 90 63
52 49 46 44 44 48 43 71 76 75 70 69 69 65 63 65 75 85 101 113 117 111 100 91 86 77 68 46 38 66 89 81 82 77 68 71 75 98 99 98 105 112 96
93 92 83 73 68 65 76 75 72 70 76 77 80 81 77 78 75 72 70 67 84 118 116 114 108 102 85 71 60 57 66 76 65 50 51 61 95 70 85 73 46 67 88
101 85 75 72 76 84 85 92 101 97 101 98 92 95 101 100 105 102 102 94 92 87 82 114 108 110 95 90 81 82 87 85 84 83 55 39 46 64 60 59 32 81 81
113 98 77 69 69 69 67 76 76 75 75 78 85 89 100 111 114 121 127 132 123 111 96 103 107 102 95 89 95 98 90 88 97 106 108 79 62 70 48 77 53 55 49
115 96 89 76 63 60 52 55 62 61 58 68 75 75 80 84 82 96 106 98 95 89 80 80 89 90 83 82 78 97 114 108 79 90 116 125 74 47 38 64 73 33 15
118 108 90 77 47 55 46 47 45 43 51 58 68 65 63 67 78 93 92 81 74 84 95 96 98 98 94 88 70 91 109 117 122 69 77 84 74 66 -32 -23 -6 72 78
Wind_Speed
39 36 36 39 39 40 39 37 38 35 33 37 38 39 37 36 40 41 32 28 28 26 32 35 35 35 35 34 34 35 37 39 40 40 39 40 42 41 39 39 40 41 34
42 41 40 41 41 42 39 41 42 41 39 38 40 41 42 42 38 38 40 33 31 31 24 30 36 38 36 34 32 33 35 38 39 39 38 36 38 38 38 37 36 37 37
43 42 39 40 43 43 43 42 42 43 43 45 45 43 45 44 41 38 40 44 35 32 34 28 28 32 39 38 34 33 33 34 37 38 38 36 34 35 36 36 35 33 33
42 40 40 40 40 42 43 42 42 44 45 45 48 49 49 48 47 46 44 44 43 44 32 31 13 15 26 34 38 32 29 30 33 36 37 36 33 32 33 35 36 30 29
41 42 40 40 42 43 44 45 44 45 47 49 52 54 52 51 52 52 50 46 47 46 48 41 31 22 14 13 23 38 24 21 28 32 32 35 34 30 30 31 33 36 24
40 39 40 41 42 43 45 47 48 48 50 52 56 57 55 53 52 53 55 53 52 50 47 45 41 35 19 7 13 22 32 20 14 21 30 30 30 32 30 30 28 30 32
41 40 40 41 43 44 46 49 50 52 51 54 56 51 51 51 52 53 53 53 54 48 46 47 40 42 41 31 29 32 31 22 21 24 19 21 26 28 31 33 32 27 25
41 41 43 44 45 46 47 49 52 53 51 50 53 52 51 43 44 48 50 51 51 47 44 43 43 41 43 47 39 36 35 37 36 21 32 30 21 21 27 31 31 32 28
42 43 43 45 46 47 48 50 52 52 54 49 48 50 52 52 52 43 43 44 47 48 47 48 44 45 46 46 49 47 43 44 46 43 34 33 35 29 26 24 29 31 33
42 43 45 46 46 48 49 49 49 51 53 54 51 49 49 51 53 53 45 44 47 49 48 51 51 52 52 51 51 51 52 52 52 53 52 47 40 37 35 31 29 30 33
44 45 47 48 47 48 49 50 51 51 51 54 54 54 53 51 51 53 59 53 56 48 51 52 54 54 51 52 53 52 53 54 55 59 61 62 60 53 45 42 36 33 34
47 47 48 48 48 49 50 52 52 52 53 53 54 53 54 54 54 56 60 62 65 61 59 60 57 53 52 53 53 53 56 58 59 59 63 65 66 66 63 58 51 39 37
50 50 50 51 51 51 53 53 54 54 54 55 56 55 54 55 56 58 62 67 67 64 60 59 53 54 55 55 50 58 57 53 59 61 63 64 68 70 69 69 67 64 57
51 51 51 52 52 53 54 55 55 55 55 56 57 57 58 58 58 59 62 67 72 67 64 63 55 55 53 56 58 65 65 69 69 72 73 70 71 74 76 76 77 75 71
51 52 53 54 55 55 56 56 57 58 58 59 59 59 60 60 59 60 61 62 67 74 72 61 57 52 58 63 68 73 74 75 80 81 80 77 75 77 78 80 82 83 81
52 53 54 53 55 56 57 58 59 58 60 60 60 61 61 61 61 61 62 63 65 71 78 63 65 71 72 74 75 78 81 84 82 80 81 82 83 85 85 84 84 85 86
52 53 54 55 56 57 57 59 60 61 63 63 62 64 64 63 65 64 63 65 68 70 85 83 79 77 79 80 80 80 80 82 83 85 85 87 87 89 92 92 92 91 90
52 53 54 55 56 57 58 60 62 63 65 66 66 66 67 64 66 66 67 69 71 73 81 92 84 85 85 82 84 86 86 84 86 85 89 93 95 95 96 96 97 97 97
54 54 54 56 57 58 59 60 62 64 65 67 68 69 69 69 71 71 71 74 75 77 80 88 93 86 88 87 91 90 90 90 87 89 91 90 92 96 100 99 99 99 99
55 55 56 57 58 59 61 62 63 64 66 67 68 69 70 71 72 73 74 75 77 80 81 87 92 94 93 91 92 99 101 91 93 88 90 94 96 99 103 105 106 102 99
56 56 58 59 59 60 60 60 63 67 69 70 70 71 71 71 74 77 78 79 81 84 86 91 96 96 95 95 96 95 104 104 102 99 103 101 100 97 94 94 96 100 101
56 57 59 60 61 61 61 64 67 69 70 72 73 72 73 74 75 78 80 83 84 88 92 94 96 99 98 97 96 99 104 109 118 89 95 102 91 97 94 92 95 98 101
57 58 59 59 62 61 62 65 67 70 72 73 74 74 75 74 76 77 79 81 83 85 87 91 100 98 102 96 98 103 103 108 115 104 107 125 101 113 104 105 106 112 106
58 59 60 59 60 60 61 64 66 68 70 70 70 71 74 75 75 78 81 83 84 84 84 85 89 93 92 92 94 99 105 112 116 110 101 133 107 118 110 111 112 113 111
56 56 55 56 59 61 60 63 65 66 68 68 68 70 71 74 74 76 79 84 84 84 83 85 89 94 98 100 101 103 105 109 122 112 95 107 110 116 113 118 111 111 113
55 54 54 54 55 59 59 61 62 65 67 68 68 69 69 69 72 72 76 80 85 84 84 86 87 88 89 89 91 90 96 105 110 122 98 99 105 103 119 106 105 102 102
Wind_Direction
280 285 288 286 285 284 286 288 288 295 299 299 302 305 311 316 314 316 334 349 353 7 345 330 332 336 338 348 355 359 356 0 10 15 14 10 7 358 359 34 41 38 8
283 284 283 283 287 287 289 287 287 290 295 301 300 303 306 310 317 315 314 325 330 329 355 346 330 325 328 334 347 355 356 349 351 356 6 13 5 4 353 2 41 37 33
284 284 287 286 285 289 289 288 289 291 293 296 297 303 304 306 308 311 308 299 314 320 314 332 346 346 328 326 332 337 348 355 350 351 345 358 9 1 358 346 356 39 31
288 287 286 288 292 292 289 291 292 291 293 296 297 298 298 299 299 297 299 298 299 298 317 319 5 19 355 339 330 340 345 349 356 349 349 347 357 5 360 348 343 21 42
289 285 288 289 290 289 289 290 291 294 294 294 295 294 294 293 291 290 291 295 293 293 293 305 319 336 358 25 1 328 357 7 355 356 2 348 347 360 3 359 345 341 29
289 289 288 289 290 290 290 292 291 292 293 294 293 290 288 288 289 288 286 287 289 291 294 297 305 315 331 345 355 353 334 352 33 16 356 358 357 347 350 353 355 348 346
287 287 288 289 290 289 290 291 291 289 291 293 290 291 290 288 287 287 288 288 287 293 297 298 305 306 309 318 320 319 327 344 334 340 13 16 356 352 347 340 337 345 348
287 287 286 287 288 287 290 291 290 288 290 294 288 288 289 292 294 292 289 290 292 295 299 300 303 305 304 302 312 314 315 314 315 330 319 329 356 355 342 340 340 332 336
288 288 288 287 288 288 287 289 289 288 285 289 292 287 286 284 292 299 297 297 297 296 298 300 303 306 306 305 303 306 309 307 303 306 316 315 314 326 335 336 333 332 324
288 289 289 288 288 288 287 287 289 286 286 284 287 290 289 290 289 290 299 299 302 298 300 297 298 300 301 302 302 302 302 302 302 299 300 303 309 309 313 320 321 322 322
288 289 288 288 288 288 288 287 287 286 287 285 286 288 289 290 291 289 287 293 299 301 302 302 300 299 301 301 302 301 301 301 300 297 294 294 295 300 303 303 307 310 312
286 289 288 289 289 288 288 288 288 288 288 288 288 289 289 289 290 290 289 290 291 294 298 298 298 300 302 302 301 301 301 301 299 298 295 293 292 292 293 295 297 299 302
284 287 288 288 288 289 289 288 288 288 289 288 288 289 290 290 291 290 290 289 290 294 297 299 299 300 300 301 305 304 302 304 302 299 298 296 293 292 290 290 290 291 292
285 287 288 288 289 289 289 289 288 288 288 288 288 289 289 290 291 290 289 290 289 290 293 293 299 301 302 302 301 303 299 298 299 296 293 294 293 292 289 287 285 286 287
286 287 288 288 289 289 289 289 288 287 288 288 288 289 289 289 290 291 291 290 289 288 289 293 295 302 303 302 300 300 297 296 295 293 291 291 291 290 289 287 285 282 282
287 288 288 289 289 289 289 289 288 289 288 289 289 289 288 289 290 291 290 290 289 287 285 293 294 296 298 298 299 298 296 295 295 294 292 289 288 286 286 286 284 283 281
287 287 288 289 289 289 289 289 289 288 288 288 289 288 288 289 289 289 290 290 289 288 285 289 291 294 295 295 296 298 299 297 296 294 292 289 288 286 284 283 282 281 280
287 288 289 289 289 289 289 289 289 289 288 288 287 287 288 289 288 288 289 288 288 289 288 288 291 292 292 295 295 295 295 296 295 294 292 288 287 285 283 282 281 280 278
285 287 288 288 289 290 290 290 290 289 288 288 287 287 287 288 287 288 288 288 289 289 289 289 289 292 292 293 293 294 294 294 294 293 291 290 288 285 282 281 281 280 279
284 285 287 288 289 290 290 290 290 289 289 289 289 288 288 288 287 288 288 288 289 289 289 289 290 291 292 294 293 293 292 293 292 292 291 289 288 286 284 282 280 280 280
283 285 286 287 289 290 290 291 291 290 290 289 289 289 289 288 288 287 287 288 288 288 289 289 289 291 293 294 293 294 291 292 291 291 289 287 286 286 286 285 283 281 279
281 284 285 286 287 289 290 291 291 291 291 290 290 290 290 290 289 289 288 287 287 287 288 289 290 291 292 294 294 293 292 291 288 292 290 286 288 285 285 286 284 282 282
280 282 284 287 287 290 292 293 293 292 291 291 291 291 291 291 292 291 291 290 290 289 289 291 289 290 291 294 294 293 291 290 287 289 289 284 287 283 284 283 282 280 281
278 281 283 285 288 292 294 295 295 294 293 293 293 293 293 293 293 293 292 292 292 292 292 292 291 292 293 295 294 293 292 290 288 288 288 281 286 282 284 282 281 280 279
277 280 284 285 287 290 294 295 296 295 293 294 295 295 294 293 294 294 293 292 292 293 295 294 294 294 294 293 293 293 291 290 287 288 289 285 286 285 284 282 282 281 280
277 280 282 285 288 290 294 295 296 294 293 294 296 295 295 294 294 295 294 294 293 296 298 298 299 299 299 299 297 295 293 290 289 288 291 285 287 288 286 285 283 282 281